Location: Unspecified
(52.1971°N, 0.0000°E)
Time: 19:42:19
(UTC+00:00)

ISS - Pass Details

Date: 24 May 2019
Orbit: 408 x 418 km, 51.6° (Epoch: 17 June)

Event Time Altitude Azimuth Distance (km) Brightness Sun altitude
Rises 00:35:42 0° 282° (WNW) 2,367 0.1 -16.6°
Reaches altitude 10° 00:38:02 10° 268° (W) 1,502 -1.1 -16.6°
Enters shadow 00:38:45 14° 260° (W) 1,271 -1.5 -16.5°
